Location: Bittelbronn
(48.4454°N, 8.5870°E)
Time: 16:42:27
(UTC+00:00)

Cosmos 2278 - Pass Details

Date: 23 May 2024
Orbit: 837 x 853 km, 71.1° (Epoch: 16 June)

Event Time Altitude Azimuth Distance (km) Brightness Sun altitude
Rises 00:33:20 0° 333° (NNW) 3,431 7.6 -19.1°
Reaches altitude 10° 00:35:49 10° 335° (NNW) 2,493 6.8 -19.0°
Maximum altitude 00:41:32 72° 60° (ENE) 899 3.9 -18.7°
Enters shadow 00:46:56 12° 145° (SE) 2,365 5.7 -18.4°
